Wetbulb
24.42 24.55 24.87 25.45 25.44 24.85 24.20 24.12 24.69 24.53 23.88 22.84 22.49 22.55 22.73 22.96 22.94 23.21 23.56 23.83 23.68 23.75 24.12 24.77 24.98 25.17 25.48 25.79 25.79 25.61 25.49 25.45 25.23 25.73 26.12 25.85 25.80 26.07 26.43 26.78 27.15 27.49 27.73 27.97 28.42 29.78 31.16 31.93 30.90 30.26 29.95 30.17 30.49 30.95 31.60 32.37 33.16 33.92 34.58 35.10 35.55 35.74 35.60 35.13 34.57 34.47 34.64 34.71 34.95
23.83 24.08 24.74 25.79 25.66 24.81 23.93 23.68 23.76 23.65 23.28 22.71 22.87 23.02 23.28 23.59 23.39 23.47 23.56 23.60 23.95 24.22 24.54 25.13 25.31 25.34 25.30 25.51 25.79 25.53 25.07 24.67 24.74 25.01 25.22 25.10 25.48 25.82 26.18 26.34 26.59 26.90 27.31 27.73 28.41 29.63 30.51 30.54 29.77 29.50 29.54 29.97 30.21 30.61 31.40 32.56 33.71 34.34 34.53 34.50 34.65 34.73 34.69 34.36 34.51 34.80 35.06 35.01 35.07
23.54 23.68 23.81 23.66 23.29 23.00 22.71 22.55 22.22 21.86 21.73 22.07 23.24 23.53 23.61 23.84 23.74 23.58 23.50 23.66 24.37 24.74 24.89 25.12 25.35 25.38 25.35 25.35 25.29 24.94 24.62 24.44 24.66 24.67 24.69 24.84 25.26 25.68 26.02 26.34 26.21 26.60 27.17 27.69 28.46 29.27 29.68 29.47 29.35 29.39 29.56 29.77 29.96 30.43 31.38 32.93 34.05 34.12 33.60 33.14 33.15 33.27 33.68 34.23 34.95 35.42 35.59 35.41 35.21
23.23 23.10 22.88 22.57 22.13 21.81 21.71 21.98 21.46 21.32 21.61 22.31 23.26 23.64 23.89 24.03 23.91 23.79 23.74 23.93 24.30 24.62 24.93 25.11 25.31 25.43 25.35 25.12 24.64 24.49 24.59 24.99 25.05 24.81 24.68 24.83 25.01 25.41 25.91 26.34 26.23 26.40 26.80 27.48 28.31 28.90 29.10 28.86 29.10 29.27 29.44 29.47 29.89 30.51 31.50 32.79 33.21 32.81 32.38 32.09 32.21 32.52 33.05 33.80 34.89 35.56 35.83 35.63 35.30
22.94 22.85 22.78 22.53 21.97 21.77 21.68 21.50 21.16 21.44 21.97 22.70 23.08 23.35 23.56 23.81 23.75 23.79 23.95 24.20 24.18 24.52 24.96 25.35 25.44 25.49 25.26 24.81 24.37 24.13 24.23 24.67 25.60 25.26 24.64 24.66 25.00 25.46 25.89 26.26 26.30 26.52 26.88 27.69 28.13 28.48 28.53 28.64 28.90 29.03 29.31 29.62 30.11 30.70 31.29 31.76 31.50 31.37 31.31 31.56 31.78 32.10 32.63 33.46 34.62 35.47 35.79 35.48 35.33
22.63 22.59 22.44 22.36 21.90 21.77 21.68 21.56 21.32 21.62 22.15 22.74 22.67 22.74 22.92 23.33 23.41 23.45 23.54 23.58 23.98 24.56 25.27 26.03 25.89 25.66 25.23 24.45 23.96 23.69 23.71 23.89 24.47 24.59 24.53 24.57 25.04 25.54 25.86 26.02 26.41 26.75 27.21 27.89 28.18 28.22 28.26 28.43 28.63 28.93 29.31 29.81 29.98 30.31 30.56 30.56 30.35 30.31 30.55 30.88 31.34 31.74 32.36 33.09 34.35 35.21 35.47 35.17 34.67
22.51 22.32 22.16 22.02 21.74 21.47 21.34 21.20 21.58 21.92 22.25 22.47 22.22 22.10 22.18 22.51 22.80 22.96 23.10 23.39 23.75 24.33 25.08 25.80 25.30 24.80 24.28 23.67 23.53 23.50 23.56 23.71 24.06 24.29 24.45 24.60 25.01 25.52 25.93 26.47 26.98 27.30 27.55 27.96 27.93 28.04 28.09 28.36 28.43 28.77 29.34 29.91 29.69 29.61 29.60 29.60 29.52 29.66 29.86 30.17 30.81 31.36 31.92 32.65 33.99 34.80 35.03 34.54 34.10
22.44 22.30 22.08 21.91 21.59 21.11 20.82 21.00 21.68 21.88 22.00 22.10 21.94 21.80 21.78 21.88 22.11 22.25 22.55 23.10 23.35 23.72 24.14 24.53 23.83 23.46 23.35 23.41 23.40 23.44 23.55 23.60 23.83 24.08 24.41 24.60 24.95 25.47 26.02 26.61 26.93 27.26 27.55 27.67 27.50 27.46 27.69 28.16 28.29 28.47 28.65 28.95 28.79 28.85 29.02 29.15 29.30 29.37 29.54 29.73 30.27 30.88 31.53 32.41 33.54 34.35 34.54 34.10 33.74
22.07 21.92 21.76 21.53 21.24 20.96 20.83 21.15 21.61 21.60 21.50 21.62 21.84 21.96 22.01 22.27 22.11 21.90 22.04 22.53 23.19 23.54 23.60 23.43 23.25 23.31 23.47 23.44 23.20 23.30 23.47 23.62 23.64 23.90 24.24 24.60 24.95 25.40 25.97 26.47 26.69 26.81 26.95 27.08 27.04 27.08 27.21 27.66 27.90 28.08 28.19 28.32 28.28 28.50 28.70 29.05 29.10 29.21 29.30 29.45 29.77 30.17 30.83 31.71 33.07 33.83 34.10 33.76 33.50
21.32 21.23 21.10 20.95 20.72 20.89 21.13 21.31 21.63 21.63 21.51 21.42 21.83 22.01 22.41 23.41 22.74 22.13 22.03 22.72 23.41 23.48 23.23 23.10 23.35 23.35 23.29 23.09 23.10 23.31 23.53 23.65 23.67 23.84 24.13 24.53 25.02 25.45 25.68 26.02 25.93 25.98 26.05 26.27 26.46 26.63 26.86 27.15 27.11 27.22 27.49 27.82 28.01 28.28 28.64 28.88 28.84 28.77 28.91 29.07 29.22 29.45 29.91 31.13 32.65 33.42 33.65 33.54 33.31
20.94 20.90 20.83 20.62 20.44 20.79 21.19 21.27 21.45 21.49 21.45 21.31 21.39 21.49 21.71 22.24 21.89 22.05 22.69 23.45 23.21 22.96 22.92 23.29 23.45 23.27 23.06 23.14 23.27 23.52 23.62 23.67 23.73 23.79 23.94 24.29 24.89 25.22 25.44 25.52 25.36 25.27 25.26 25.57 25.96 26.18 26.40 26.50 26.37 26.50 26.75 27.25 27.61 27.99 28.28 28.49 28.38 28.30 28.24 28.46 28.74 29.06 29.69 31.09 32.55 33.16 33.27 33.31 33.24
20.80 20.79 20.69 20.54 20.34 20.53 20.83 20.95 20.95 20.99 21.07 21.15 21.19 21.07 20.91 20.95 21.31 22.23 23.09 23.32 22.90 22.84 23.12 23.68 23.49 23.30 23.19 23.33 23.43 23.70 23.91 23.67 23.68 23.77 23.78 23.99 24.47 24.77 24.89 24.90 24.89 24.81 24.94 25.22 25.61 25.81 25.91 26.02 26.09 26.21 26.42 26.69 27.12 27.43 27.76 27.89 27.79 27.77 27.73 27.79 28.30 29.05 30.11 31.66 32.54 32.91 33.16 33.20 33.08
20.65 20.55 20.43 20.29 20.30 20.49 20.69 20.87 20.75 20.81 20.93 20.95 21.05 21.19 21.27 21.35 22.05 22.70 23.06 22.66 22.94 23.13 23.36 23.63 23.66 23.55 23.42 23.39 23.52 23.54 23.61 23.64 23.52 23.54 23.67 23.91 24.19 24.27 24.14 24.01 24.23 24.49 24.82 25.15 25.36 25.49 25.57 25.68 26.16 26.26 26.33 26.27 26.42 26.83 27.24 27.34 27.35 27.37 27.51 27.76 28.56 29.66 30.87 32.02 32.34 32.69 32.91 32.93 32.68
20.43 20.25 20.06 19.93 20.29 20.39 20.52 20.77 20.73 20.71 20.71 20.79 21.21 21.65 21.89 21.85 22.74 23.32 23.45 22.95 23.07 23.02 23.07 23.19 23.67 23.88 23.90 23.72 23.60 23.54 23.57 23.57 23.50 23.45 23.58 23.98 24.03 23.93 23.72 23.42 23.79 24.37 24.89 25.07 25.25 25.37 25.47 25.57 25.94 26.11 26.07 25.94 26.03 26.32 26.69 26.98 27.12 27.35 27.83 28.44 29.53 30.61 31.51 31.79 32.13 32.43 32.54 32.33 32.11
20.12 19.93 19.86 19.76 20.26 20.51 20.65 20.79 20.81 20.85 20.99 21.28 21.64 22.06 22.42 22.58 23.45 24.04 24.13 23.58 23.32 23.11 23.04 23.00 23.37 23.88 24.15 24.15 23.87 23.62 23.53 23.48 23.37 23.45 23.54 23.74 23.75 23.75 23.78 23.67 24.15 24.60 24.87 24.91 25.11 25.33 25.54 25.78 25.95 25.90 25.86 25.65 25.74 26.04 26.35 26.67 27.02 27.66 28.51 29.94 30.41 30.87 31.19 31.56 32.01 32.15 32.04 31.71 31.48
19.81 19.75 19.65 19.64 20.20 20.58 20.77 20.83 21.07 21.30 21.56 21.81 22.22 22.51 22.75 23.11 23.82 24.34 24.46 24.05 23.58 23.38 23.32 23.16 23.29 23.57 23.88 24.38 24.10 23.82 23.45 23.37 23.29 23.29 23.36 23.50 23.83 24.06 24.00 23.96 24.31 24.65 24.68 24.50 24.63 25.00 25.46 25.83 25.90 25.74 25.57 25.45 25.59 25.91 26.26 26.58 27.22 28.22 29.41 30.77 29.85 29.96 30.76 31.78 31.89 31.80 31.60 31.45 31.30
19.77 19.64 19.60 19.77 20.32 20.59 20.75 20.83 21.28 21.61 21.89 22.15 22.55 22.92 23.20 23.58 23.95 24.48 24.77 24.60 23.84 23.44 23.26 23.28 23.57 23.65 23.75 24.03 24.03 23.83 23.50 23.33 23.28 23.27 23.43 23.75 24.22 24.46 24.34 24.08 24.43 24.59 24.46 24.15 24.21 24.60 25.02 25.50 25.59 25.60 25.57 25.46 25.67 26.07 26.49 26.85 27.72 28.91 29.84 29.75 28.81 29.35 30.56 31.94 31.76 31.46 31.21 31.23 31.23
20.06 20.04 20.15 20.42 20.66 20.83 20.87 21.08 21.38 21.71 22.04 22.40 22.74 23.15 23.57 23.90 24.02 24.30 24.51 24.67 24.07 23.61 23.34 23.44 23.78 23.86 23.76 23.50 23.57 23.84 23.84 23.45 23.30 23.41 23.67 24.15 24.56 24.67 24.58 24.37 24.56 24.44 24.27 23.99 24.11 24.38 24.66 24.97 25.09 25.26 25.39 25.51 25.88 26.48 27.08 27.61 28.74 29.89 30.24 29.02 28.47 29.10 30.32 31.44 31.31 31.11 30.94 30.97 31.39
20.43 20.50 20.57 20.76 20.82 20.91 21.08 21.41 21.62 21.84 22.17 22.59 22.93 23.29 23.64 23.92 24.00 24.00 24.02 24.06 24.18 23.84 23.40 23.39 23.72 23.83 23.80 23.63 23.57 23.98 24.21 23.74 23.58 23.71 23.98 24.37 24.60 24.54 24.60 24.48 24.32 24.14 24.05 23.96 24.05 24.28 24.52 24.67 24.71 24.87 25.21 25.53 26.10 26.87 27.77 28.94 30.25 30.72 30.09 28.65 28.12 28.68 29.83 30.97 31.05 31.01 31.04 31.15 31.51
20.39 20.48 20.59 20.78 20.88 20.97 21.06 21.37 21.57 21.92 22.29 22.68 22.80 23.02 23.46 23.80 23.91 23.78 23.59 23.49 23.96 23.79 23.42 23.28 23.39 23.50 23.61 23.69 23.69 23.76 23.89 23.93 23.69 23.68 23.76 24.05 24.11 24.24 24.19 24.05 23.79 23.79 23.79 23.85 23.96 24.14 24.28 24.45 24.54 24.78 25.30 25.86 26.60 27.60 28.86 30.52 30.92 29.62 27.96 27.26 27.30 28.29 29.64 30.77 30.86 30.98 31.11 31.37 31.64
20.13 20.36 20.58 20.75 20.82 20.85 20.96 21.26 21.64 21.94 22.18 22.49 22.63 22.95 23.33 23.69 23.80 23.66 23.45 23.62 23.80 23.57 23.15 23.11 23.19 23.33 23.46 23.51 23.41 23.28 23.40 23.93 23.50 23.24 23.28 23.42 23.71 23.91 24.01 23.74 23.35 23.37 23.62 23.72 23.85 24.01 24.19 24.27 24.54 25.10 25.76 26.64 27.58 28.92 30.21 31.13 28.89 26.82 25.80 26.45 27.01 28.22 29.53 30.35 30.56 30.81 31.16 31.50 31.84
19.95 20.27 20.53 20.77 20.71 20.92 21.21 21.47 21.70 21.87 22.00 22.15 22.44 22.80 23.10 23.48 23.59 23.58 23.58 23.74 23.66 23.40 23.15 23.15 23.24 23.38 23.49 23.53 23.34 23.11 22.98 23.18 22.80 22.71 22.81 23.14 23.31 23.53 23.62 23.45 23.12 23.07 23.15 23.31 23.50 23.76 24.05 24.41 25.09 25.89 26.80 27.69 29.10 30.45 30.88 29.52 26.87 25.47 25.25 26.16 27.22 28.20 29.08 29.88 30.23 30.67 31.18 31.78 31.88
19.87 20.15 20.48 20.72 20.80 21.27 21.65 21.67 21.60 21.57 21.61 21.89 22.22 22.63 23.02 23.31 23.24 23.27 23.26 23.28 23.42 23.28 23.06 23.01 23.19 23.36 23.49 23.61 23.38 22.86 22.20 21.68 21.48 21.74 22.20 22.77 22.69 22.55 22.43 22.59 22.38 22.46 22.65 23.05 23.37 23.79 24.39 25.24 26.04 27.06 28.14 29.05 30.43 30.36 29.32 27.61 26.33 25.51 25.46 26.46 27.69 28.25 28.84 29.59 30.13 30.60 31.20 31.86 32.02
19.76 20.02 20.29 20.50 20.71 20.95 21.24 21.35 21.20 21.18 21.21 21.54 21.87 22.34 22.71 22.84 22.73 22.67 22.60 22.72 22.75 22.80 22.80 22.94 23.15 23.18 23.33 23.69 23.21 22.41 21.49 20.77 20.53 20.66 21.10 21.63 21.53 21.41 21.36 21.53 21.48 21.80 22.38 23.16 24.46 25.80 26.89 27.43 27.67 28.31 29.49 30.76 30.77 29.01 27.09 26.61 25.78 25.74 26.45 27.77 28.33 28.61 28.88 29.61 30.04 30.45 30.94 31.73 31.86
19.79 20.01 20.23 20.35 20.54 20.79 20.99 21.00 20.76 20.73 21.01 21.43 21.73 21.92 22.05 22.04 21.99 22.02 22.06 21.98 22.21 22.37 22.42 22.42 22.63 22.79 23.10 23.44 22.89 22.11 21.36 20.77 20.44 20.14 20.00 20.18 20.37 20.56 20.77 20.97 21.35 21.86 22.75 24.07 27.59 29.96 31.20 31.47 31.08 30.91 31.03 31.29 29.50 28.01 26.94 26.50 26.35 27.21 28.45 29.36 29.10 28.94 29.00 29.46 29.93 30.30 30.79 31.37 31.65
19.71 19.84 20.01 20.22 20.45 20.61 20.60 20.56 20.52 20.80 21.18 21.45 21.64 21.54 21.46 21.44 21.67 21.74 21.73 21.51 21.84 21.88 21.71 21.54 21.84 22.84 23.46 23.04 22.39 21.68 21.24 21.08 20.69 20.02 19.49 19.34 19.48 19.84 20.16 20.60 21.27 21.88 23.19 25.93 29.19 31.27 32.64 33.79 34.83 34.27 32.63 29.92 28.13 27.35 26.94 26.37 27.57 28.82 29.78 30.13 29.68 29.36 29.23 29.36 29.63 30.03 30.43 31.01 31.26
19.65 19.73 20.02 20.43 20.47 20.35 20.25 20.51 20.77 21.02 21.23 21.29 21.14 21.13 21.09 21.08 21.47 21.58 21.52 21.39 21.47 21.37 21.33 21.43 21.69 22.90 23.63 22.61 21.70 21.11 20.97 21.16 20.77 20.02 19.34 19.04 19.10 19.26 19.57 20.14 20.92 22.04 24.08 27.68 30.18 31.86 33.11 34.64 36.06 35.67 33.48 29.64 27.67 26.99 26.87 26.70 28.35 29.47 30.02 30.11 29.53 29.33 29.33 29.50 29.78 30.00 30.05 30.23 30.62
19.79 20.10 20.28 20.48 20.46 20.38 20.46 20.63 20.80 20.97 21.09 21.17 20.89 20.97 21.06 21.04 21.26 21.25 21.18 21.01 20.95 20.98 21.14 21.50 22.28 22.64 22.50 21.89 21.28 20.92 20.80 20.95 20.79 20.39 19.86 19.46 19.27 19.39 19.61 20.14 20.69 22.58 25.52 29.05 30.75 32.08 33.54 35.57 36.23 35.73 33.80 30.45 27.59 26.67 26.98 27.69 29.02 29.56 29.50 29.28 29.09 28.99 29.16 29.64 30.11 29.97 29.59 29.54 29.96
20.27 20.49 20.52 20.42 20.30 20.40 20.55 20.69 20.63 20.67 20.75 20.94 21.04 21.22 21.23 20.82 20.91 20.98 20.93 20.76 20.61 20.76 21.19 21.89 22.44 22.26 21.69 21.17 20.93 20.83 20.74 20.79 20.76 20.57 20.29 19.73 19.46 19.73 20.18 20.36 20.77 23.10 26.38 29.80 30.98 32.36 34.04 36.40 36.12 35.61 34.52 32.54 29.20 27.51 27.40 28.90 29.18 29.10 28.86 28.60 28.70 28.91 29.28 29.74 30.43 30.08 29.37 29.11 29.27
20.66 20.67 20.52 20.34 20.26 20.19 20.23 20.23 20.34 20.54 20.75 20.81 20.83 20.79 20.61 20.35 20.39 20.42 20.40 20.38 20.48 21.00 21.72 22.25 21.99 21.45 20.91 20.77 20.75 20.64 20.61 20.67 20.80 20.79 20.43 19.71 19.86 20.26 20.77 20.99 21.17 23.08 26.27 29.78 31.18 32.70 34.46 36.34 35.82 35.53 34.95 33.83 30.81 28.46 27.57 28.90 28.91 28.63 28.34 28.24 28.44 28.88 29.28 29.65 30.52 30.18 29.43 29.08 29.06
20.72 20.53 20.30 20.10 20.00 19.93 19.88 19.93 20.16 20.40 20.52 20.36 20.09 20.05 20.05 20.05 19.97 20.03 20.16 20.32 20.73 21.61 22.27 22.12 21.15 20.57 20.40 20.85 20.77 20.60 20.46 20.55 20.74 20.81 20.66 20.27 20.93 21.07 20.85 20.26 21.11 23.25 26.44 30.04 31.39 33.01 34.62 35.76 35.15 35.03 34.83 34.05 31.34 28.76 27.35 28.33 28.33 28.11 27.92 27.84 28.17 28.79 29.32 29.54 30.29 30.33 29.81 28.56 28.75
20.35 20.18 19.97 19.80 19.69 19.71 19.72 19.72 19.78 19.92 19.97 19.75 19.48 19.56 19.75 19.77 19.95 20.14 20.44 20.79 21.05 21.26 21.28 21.02 20.51 20.14 20.16 20.71 20.69 20.55 20.45 20.55 20.83 21.15 21.36 21.35 20.72 20.59 20.67 20.73 21.13 23.41 26.77 30.35 31.69 33.18 34.51 35.09 34.12 33.79 33.70 33.59 31.41 28.58 26.67 27.43 27.57 27.51 27.57 27.61 28.19 28.83 29.46 29.53 29.91 30.29 30.02 28.45 28.61
19.89 19.79 19.66 19.49 19.47 19.63 19.71 19.83 19.64 19.63 19.57 19.45 19.37 19.49 19.71 19.84 19.99 20.03 20.26 20.85 21.09 20.81 20.42 20.30 20.18 20.18 20.26 20.63 20.55 20.49 20.62 21.05 21.34 21.80 22.12 21.93 21.27 20.95 21.07 21.31 21.35 24.03 27.78 30.65 31.73 33.20 34.42 34.68 33.47 32.96 32.78 32.77 30.61 27.95 26.27 26.67 26.88 27.09 27.33 27.60 28.47 29.07 29.36 29.18 29.53 30.16 30.22 28.83 28.98
19.44 19.43 19.35 19.28 19.44 19.60 19.72 19.81 19.68 19.58 19.52 19.38 19.46 19.58 19.64 19.63 19.69 19.60 19.89 20.85 21.27 21.11 20.60 20.38 20.53 20.61 20.77 20.99 20.87 20.94 21.19 21.90 21.61 21.41 21.19 21.22 21.10 21.22 21.42 21.40 21.77 24.98 28.72 30.63 31.65 33.16 34.52 34.64 33.35 32.57 32.12 31.78 29.32 27.09 25.86 25.93 26.13 26.50 26.94 27.52 28.44 28.66 28.61 28.58 29.11 29.91 30.34 29.69 29.45
19.23 19.18 19.11 19.16 19.31 19.47 19.42 19.40 19.26 19.09 19.00 18.95 19.09 19.32 19.56 19.53 19.61 19.75 20.18 21.47 21.85 21.42 20.89 20.75 20.93 21.13 21.31 21.33 21.28 21.31 21.44 21.55 21.18 21.07 21.20 21.30 21.30 21.45 21.58 21.73 22.29 25.35 28.70 30.27 31.20 32.90 34.52 34.78 33.42 32.42 31.41 30.17 27.71 26.17 25.44 25.31 25.53 25.97 26.64 27.48 28.11 27.77 27.38 27.67 28.45 29.39 30.12 30.24 30.02
19.22 19.14 18.95 18.91 18.99 19.09 18.95 18.79 18.67 18.56 18.47 18.56 18.57 18.79 19.17 19.53 19.95 20.46 21.18 22.26 21.82 21.20 20.73 20.89 21.03 21.03 20.97 20.93 21.03 21.41 21.69 21.27 21.05 21.08 21.30 21.75 21.56 21.59 21.75 22.10 22.38 24.80 27.88 29.79 30.98 32.69 34.35 34.89 33.76 32.50 30.82 28.39 26.34 25.53 25.35 25.17 25.34 25.69 26.43 27.33 27.52 26.84 26.34 26.71 27.19 27.91 28.86 29.84 30.37
19.39 19.31 19.11 18.89 18.76 18.64 18.68 18.65 18.60 18.44 18.42 18.54 18.63 18.79 19.08 19.53 20.14 20.91 21.64 22.29 21.32 20.77 20.54 20.57 20.61 20.67 20.67 20.65 20.85 21.19 21.52 21.49 21.30 21.28 21.45 22.03 22.01 22.13 22.45 22.70 22.05 23.62 26.39 29.27 30.71 32.52 34.10 34.73 34.26 32.70 30.25 26.93 25.44 24.96 24.91 24.78 24.88 25.25 25.94 26.90 26.82 26.29 25.81 26.10 26.07 26.39 27.26 28.62 30.38
19.60 19.54 19.36 19.19 18.88 18.80 18.85 18.86 18.79 18.71 18.71 18.82 19.04 19.36 19.74 20.08 20.53 21.13 21.88 22.70 21.44 20.85 20.65 20.40 20.19 20.27 20.47 20.87 21.01 21.17 21.37 21.61 21.79 21.65 21.52 21.56 22.03 22.70 23.15 22.80 21.84 22.79 25.27 28.80 30.44 32.22 33.78 34.75 34.68 33.27 30.55 26.59 25.07 24.60 24.51 24.23 24.12 24.42 25.07 25.97 26.10 25.85 25.59 25.76 25.45 25.53 26.14 27.40 30.41
19.80 19.78 19.69 19.54 19.33 19.22 19.23 19.16 19.07 19.00 19.10 19.20 19.33 19.69 20.11 20.45 20.93 21.57 22.20 22.67 21.73 21.17 20.79 20.43 20.13 20.20 20.66 21.59 21.43 21.19 21.09 21.42 21.83 22.03 21.99 21.63 22.57 23.85 24.31 22.87 21.73 22.45 24.80 28.49 30.16 31.81 33.39 34.42 34.39 33.69 31.58 27.67 25.31 24.50 24.30 23.75 23.32 23.41 23.88 24.78 25.15 25.22 25.22 25.34 25.14 25.06 25.43 26.31 29.96
20.13 20.19 20.08 19.87 19.70 19.62 19.61 19.40 19.34 19.36 19.52 19.70 19.82 20.08 20.48 21.11 21.61 22.11 22.47 22.39 21.90 21.54 21.16 20.72 20.40 20.61 21.22 22.49 21.67 21.03 20.79 21.15 21.35 21.69 22.13 22.53 23.45 24.91 25.27 23.07 21.70 22.16 24.21 27.81 29.63 31.46 32.96 33.81 33.58 33.47 32.03 28.35 25.56 24.51 24.15 23.43 22.74 22.46 22.66 23.48 24.17 24.52 24.73 24.86 24.83 24.82 24.86 25.12 27.52
20.42 20.48 20.46 20.39 20.25 20.08 19.97 19.76 19.70 19.80 19.92 20.10 20.36 20.91 21.64 22.31 22.14 22.03 21.92 21.77 21.73 21.65 21.54 21.19 20.89 20.93 21.40 22.39 21.73 21.09 20.69 20.77 21.10 21.48 22.07 23.03 23.32 24.27 24.47 22.71 21.71 21.81 23.17 26.11 28.85 31.08 32.61 33.22 32.74 32.79 32.12 29.36 26.14 24.73 24.05 23.31 22.25 21.49 21.44 22.22 23.37 23.95 24.22 24.31 24.41 24.40 24.35 24.31 24.99
MSLP
1033.13 1033.01 1032.93 1032.81 1032.65 1032.57 1032.49 1032.41 1032.29 1032.21 1032.17 1032.09 1031.93 1031.73 1031.53 1031.29 1031.05 1030.81 1030.57 1030.37 1030.17 1029.93 1029.73 1029.49 1029.25 1029.01 1028.81 1028.57 1028.41 1028.21 1028.01 1027.85 1027.73 1027.57 1027.41 1027.21 1027.05 1026.81 1026.53 1026.29 1026.01 1025.73 1025.41 1025.09 1024.77 1024.45 1024.09 1023.81 1023.53 1023.29 1023.01 1022.77 1022.49 1022.17 1021.85 1021.53 1021.21 1020.93 1020.69 1020.49 1020.25 1020.01 1019.81 1019.53 1019.33 1019.09 1018.89 1018.65 1018.49
1033.21 1033.09 1033.01 1032.89 1032.81 1032.69 1032.65 1032.49 1032.45 1032.37 1032.29 1032.21 1032.01 1031.81 1031.57 1031.33 1031.09 1030.81 1030.61 1030.37 1030.21 1030.01 1029.73 1029.49 1029.21 1029.01 1028.81 1028.61 1028.37 1028.21 1028.09 1027.93 1027.73 1027.57 1027.41 1027.21 1027.01 1026.81 1026.49 1026.21 1025.97 1025.69 1025.37 1025.05 1024.69 1024.37 1024.05 1023.77 1023.57 1023.33 1023.05 1022.77 1022.49 1022.17 1021.85 1021.53 1021.21 1020.93 1020.69 1020.49 1020.33 1020.09 1019.81 1019.53 1019.25 1018.97 1018.73 1018.49 1018.33
1033.25 1033.17 1033.09 1032.97 1032.93 1032.81 1032.69 1032.61 1032.53 1032.49 1032.37 1032.21 1032.09 1031.85 1031.61 1031.37 1031.13 1030.89 1030.65 1030.49 1030.29 1030.05 1029.77 1029.49 1029.21 1028.97 1028.77 1028.57 1028.37 1028.25 1028.17 1027.97 1027.81 1027.57 1027.37 1027.21 1026.93 1026.69 1026.45 1026.17 1025.85 1025.57 1025.25 1024.93 1024.65 1024.33 1024.05 1023.77 1023.53 1023.29 1023.01 1022.73 1022.45 1022.13 1021.81 1021.49 1021.21 1021.01 1020.81 1020.57 1020.37 1020.13 1019.85 1019.53 1019.21 1018.89 1018.61 1018.37 1018.21
1033.37 1033.25 1033.13 1033.05 1032.97 1032.93 1032.81 1032.73 1032.65 1032.53 1032.45 1032.25 1032.09 1031.85 1031.61 1031.37 1031.17 1030.93 1030.73 1030.49 1030.25 1030.01 1029.77 1029.49 1029.21 1028.97 1028.77 1028.57 1028.45 1028.33 1028.21 1028.05 1027.81 1027.57 1027.37 1027.13 1026.85 1026.61 1026.37 1026.09 1025.73 1025.41 1025.13 1024.81 1024.53 1024.25 1024.01 1023.81 1023.53 1023.25 1022.97 1022.69 1022.41 1022.09 1021.77 1021.49 1021.25 1021.09 1020.89 1020.61 1020.37 1020.13 1019.85 1019.53 1019.17 1018.81 1018.49 1018.25 1018.05
1033.37 1033.29 1033.21 1033.09 1033.05 1032.97 1032.93 1032.85 1032.77 1032.65 1032.49 1032.25 1032.09 1031.81 1031.57 1031.37 1031.17 1030.93 1030.73 1030.45 1030.21 1029.93 1029.69 1029.49 1029.21 1028.97 1028.81 1028.65 1028.49 1028.37 1028.21 1028.05 1027.81 1027.61 1027.37 1027.09 1026.81 1026.49 1026.21 1025.93 1025.61 1025.29 1024.97 1024.69 1024.45 1024.21 1023.93 1023.73 1023.45 1023.21 1022.93 1022.65 1022.33 1022.01 1021.77 1021.53 1021.37 1021.13 1020.89 1020.61 1020.33 1020.09 1019.81 1019.53 1019.13 1018.77 1018.41 1018.17 1017.97
1033.45 1033.37 1033.25 1033.17 1033.09 1033.05 1032.97 1032.89 1032.81 1032.65 1032.49 1032.29 1032.09 1031.81 1031.61 1031.37 1031.21 1030.97 1030.73 1030.45 1030.21 1029.93 1029.65 1029.37 1029.21 1029.01 1028.85 1028.69 1028.57 1028.37 1028.17 1027.97 1027.81 1027.57 1027.29 1026.97 1026.69 1026.37 1026.05 1025.77 1025.49 1025.17 1024.89 1024.61 1024.37 1024.13 1023.89 1023.65 1023.37 1023.09 1022.81 1022.49 1022.21 1021.97 1021.77 1021.57 1021.37 1021.13 1020.81 1020.53 1020.25 1020.01 1019.73 1019.41 1019.09 1018.65 1018.33 1018.05 1017.89
1033.53 1033.41 1033.29 1033.21 1033.17 1033.09 1033.01 1032.93 1032.81 1032.69 1032.49 1032.29 1032.09 1031.81 1031.61 1031.37 1031.21 1030.93 1030.73 1030.49 1030.21 1029.93 1029.65 1029.45 1029.29 1029.13 1028.97 1028.81 1028.57 1028.37 1028.13 1027.93 1027.73 1027.53 1027.25 1026.93 1026.61 1026.25 1025.93 1025.65 1025.37 1025.09 1024.81 1024.53 1024.33 1024.09 1023.85 1023.61 1023.33 1023.01 1022.73 1022.45 1022.17 1021.89 1021.69 1021.53 1021.37 1021.09 1020.81 1020.45 1020.17 1019.93 1019.65 1019.33 1018.93 1018.61 1018.25 1017.97 1017.81
1033.61 1033.53 1033.41 1033.33 1033.21 1033.17 1033.09 1032.97 1032.85 1032.69 1032.49 1032.29 1032.09 1031.81 1031.61 1031.37 1031.13 1030.93 1030.73 1030.49 1030.21 1030.01 1029.77 1029.57 1029.37 1029.21 1029.01 1028.81 1028.57 1028.37 1028.13 1027.93 1027.65 1027.45 1027.21 1026.85 1026.57 1026.21 1025.89 1025.57 1025.29 1025.05 1024.81 1024.53 1024.33 1024.09 1023.81 1023.53 1023.25 1022.97 1022.69 1022.41 1022.13 1021.85 1021.61 1021.41 1021.21 1020.97 1020.65 1020.33 1020.01 1019.73 1019.49 1019.21 1018.89 1018.53 1018.21 1017.93 1017.69
1033.65 1033.53 1033.45 1033.37 1033.25 1033.21 1033.09 1032.97 1032.85 1032.69 1032.49 1032.25 1032.05 1031.81 1031.61 1031.37 1031.13 1030.93 1030.69 1030.49 1030.25 1030.05 1029.85 1029.65 1029.45 1029.21 1028.97 1028.81 1028.57 1028.33 1028.09 1027.85 1027.65 1027.37 1027.09 1026.81 1026.49 1026.13 1025.81 1025.53 1025.25 1025.01 1024.81 1024.57 1024.33 1024.05 1023.81 1023.53 1023.21 1022.93 1022.69 1022.41 1022.09 1021.81 1021.57 1021.33 1021.09 1020.81 1020.53 1020.21 1019.89 1019.61 1019.37 1019.09 1018.81 1018.45 1018.13 1017.85 1017.65
1033.65 1033.57 1033.49 1033.37 1033.29 1033.21 1033.09 1032.93 1032.85 1032.69 1032.49 1032.21 1032.01 1031.81 1031.57 1031.37 1031.17 1030.93 1030.73 1030.49 1030.21 1030.01 1029.81 1029.61 1029.37 1029.13 1028.93 1028.73 1028.49 1028.29 1028.09 1027.85 1027.61 1027.37 1027.05 1026.77 1026.45 1026.09 1025.81 1025.57 1025.33 1025.09 1024.81 1024.61 1024.33 1024.05 1023.73 1023.45 1023.17 1022.89 1022.65 1022.37 1022.09 1021.77 1021.49 1021.21 1020.97 1020.69 1020.37 1020.09 1019.81 1019.53 1019.21 1018.93 1018.65 1018.29 1018.01 1017.77 1017.53
1033.73 1033.61 1033.53 1033.41 1033.33 1033.21 1033.09 1032.93 1032.81 1032.65 1032.45 1032.21 1031.97 1031.77 1031.53 1031.37 1031.17 1030.93 1030.69 1030.45 1030.21 1029.97 1029.81 1029.57 1029.37 1029.09 1028.89 1028.65 1028.45 1028.25 1028.05 1027.81 1027.61 1027.37 1027.05 1026.73 1026.41 1026.13 1025.89 1025.65 1025.37 1025.13 1024.89 1024.65 1024.37 1024.05 1023.73 1023.37 1023.09 1022.77 1022.49 1022.25 1021.97 1021.65 1021.37 1021.09 1020.81 1020.53 1020.21 1019.93 1019.65 1019.37 1019.05 1018.69 1018.37 1018.13 1017.89 1017.65 1017.41
1033.73 1033.61 1033.53 1033.45 1033.33 1033.21 1033.09 1032.93 1032.77 1032.57 1032.37 1032.13 1031.93 1031.69 1031.53 1031.33 1031.09 1030.85 1030.61 1030.37 1030.13 1029.93 1029.69 1029.53 1029.33 1029.09 1028.89 1028.65 1028.41 1028.21 1027.97 1027.77 1027.53 1027.29 1027.01 1026.69 1026.41 1026.17 1025.93 1025.65 1025.41 1025.17 1024.93 1024.61 1024.37 1024.05 1023.69 1023.37 1023.01 1022.65 1022.33 1022.05 1021.81 1021.57 1021.29 1021.01 1020.73 1020.41 1020.09 1019.73 1019.45 1019.17 1018.81 1018.49 1018.21 1018.05 1017.81 1017.61 1017.37
1033.73 1033.65 1033.53 1033.41 1033.33 1033.17 1033.05 1032.89 1032.73 1032.49 1032.29 1032.09 1031.85 1031.65 1031.45 1031.25 1031.01 1030.77 1030.49 1030.29 1030.05 1029.81 1029.65 1029.45 1029.29 1029.09 1028.85 1028.61 1028.37 1028.13 1027.93 1027.69 1027.49 1027.25 1026.97 1026.65 1026.37 1026.09 1025.85 1025.65 1025.37 1025.13 1024.89 1024.57 1024.33 1024.01 1023.65 1023.29 1022.93 1022.57 1022.21 1021.89 1021.65 1021.41 1021.17 1020.89 1020.65 1020.29 1019.93 1019.53 1019.21 1018.93 1018.61 1018.33 1018.09 1017.93 1017.77 1017.53 1017.37
1033.77 1033.65 1033.53 1033.41 1033.33 1033.17 1032.97 1032.81 1032.65 1032.45 1032.21 1032.01 1031.81 1031.57 1031.37 1031.13 1030.89 1030.65 1030.37 1030.17 1029.93 1029.77 1029.61 1029.41 1029.25 1029.05 1028.81 1028.57 1028.33 1028.09 1027.89 1027.65 1027.41 1027.17 1026.93 1026.65 1026.37 1026.09 1025.81 1025.57 1025.33 1025.09 1024.81 1024.53 1024.25 1023.93 1023.65 1023.25 1022.89 1022.49 1022.13 1021.81 1021.53 1021.21 1020.97 1020.77 1020.49 1020.13 1019.81 1019.37 1019.01 1018.69 1018.41 1018.21 1018.01 1017.85 1017.69 1017.53 1017.29
1033.77 1033.65 1033.53 1033.45 1033.29 1033.09 1032.93 1032.77 1032.57 1032.33 1032.09 1031.89 1031.65 1031.45 1031.21 1030.97 1030.73 1030.49 1030.25 1030.05 1029.85 1029.69 1029.53 1029.37 1029.17 1028.93 1028.73 1028.49 1028.25 1028.05 1027.81 1027.57 1027.37 1027.09 1026.81 1026.49 1026.25 1025.97 1025.73 1025.49 1025.21 1024.93 1024.69 1024.41 1024.13 1023.81 1023.49 1023.13 1022.77 1022.41 1022.09 1021.81 1021.49 1021.13 1020.81 1020.53 1020.25 1019.93 1019.57 1019.17 1018.81 1018.53 1018.33 1018.13 1017.97 1017.81 1017.65 1017.49 1017.25
1033.77 1033.65 1033.53 1033.41 1033.25 1033.09 1032.89 1032.73 1032.49 1032.25 1032.01 1031.77 1031.53 1031.37 1031.09 1030.85 1030.61 1030.37 1030.17 1029.97 1029.77 1029.61 1029.49 1029.29 1029.09 1028.81 1028.57 1028.37 1028.13 1027.93 1027.73 1027.49 1027.25 1027.01 1026.73 1026.41 1026.17 1025.89 1025.61 1025.37 1025.09 1024.81 1024.53 1024.29 1023.93 1023.61 1023.25 1022.93 1022.65 1022.29 1021.97 1021.69 1021.37 1021.01 1020.69 1020.37 1020.05 1019.69 1019.33 1018.97 1018.65 1018.41 1018.21 1018.09 1017.93 1017.81 1017.65 1017.45 1017.21
1033.77 1033.65 1033.53 1033.37 1033.21 1033.05 1032.85 1032.65 1032.45 1032.21 1031.93 1031.73 1031.45 1031.21 1031.01 1030.77 1030.49 1030.25 1030.09 1029.93 1029.69 1029.53 1029.37 1029.17 1028.93 1028.73 1028.45 1028.21 1028.01 1027.81 1027.61 1027.37 1027.13 1026.89 1026.65 1026.33 1026.05 1025.81 1025.53 1025.25 1025.01 1024.73 1024.49 1024.17 1023.81 1023.41 1023.01 1022.65 1022.37 1022.09 1021.81 1021.53 1021.17 1020.81 1020.49 1020.13 1019.77 1019.41 1019.09 1018.81 1018.57 1018.37 1018.17 1017.97 1017.89 1017.77 1017.61 1017.41 1017.21
1033.77 1033.61 1033.45 1033.29 1033.13 1032.93 1032.77 1032.57 1032.37 1032.13 1031.89 1031.65 1031.37 1031.13 1030.93 1030.65 1030.41 1030.21 1030.01 1029.81 1029.65 1029.49 1029.25 1029.05 1028.85 1028.65 1028.41 1028.13 1027.93 1027.73 1027.49 1027.25 1027.01 1026.77 1026.49 1026.21 1025.97 1025.73 1025.45 1025.17 1024.89 1024.65 1024.37 1024.09 1023.65 1023.25 1022.85 1022.49 1022.13 1021.85 1021.53 1021.21 1020.85 1020.49 1020.13 1019.77 1019.45 1019.13 1018.89 1018.65 1018.41 1018.21 1018.09 1017.93 1017.85 1017.73 1017.57 1017.37 1017.17
1033.73 1033.57 1033.37 1033.21 1033.05 1032.89 1032.73 1032.49 1032.29 1032.09 1031.81 1031.57 1031.33 1031.09 1030.81 1030.57 1030.37 1030.13 1029.93 1029.77 1029.57 1029.37 1029.17 1028.93 1028.73 1028.49 1028.29 1028.09 1027.85 1027.61 1027.37 1027.13 1026.89 1026.65 1026.41 1026.13 1025.89 1025.65 1025.37 1025.09 1024.81 1024.53 1024.25 1023.93 1023.53 1023.09 1022.69 1022.33 1022.01 1021.65 1021.29 1020.93 1020.53 1020.09 1019.73 1019.41 1019.09 1018.89 1018.65 1018.49 1018.33 1018.17 1018.01 1017.89 1017.81 1017.65 1017.53 1017.33 1017.13
1033.73 1033.57 1033.37 1033.21 1033.05 1032.89 1032.69 1032.49 1032.21 1032.01 1031.81 1031.53 1031.25 1031.01 1030.73 1030.49 1030.25 1030.09 1029.89 1029.69 1029.49 1029.33 1029.13 1028.89 1028.65 1028.41 1028.17 1027.93 1027.69 1027.49 1027.25 1027.01 1026.77 1026.49 1026.29 1026.05 1025.81 1025.53 1025.25 1024.97 1024.69 1024.41 1024.09 1023.73 1023.37 1022.97 1022.57 1022.21 1021.85 1021.49 1021.09 1020.69 1020.25 1019.81 1019.41 1019.09 1018.89 1018.69 1018.53 1018.37 1018.21 1018.09 1017.97 1017.81 1017.73 1017.57 1017.41 1017.25 1017.09
1033.81 1033.61 1033.41 1033.21 1033.05 1032.89 1032.65 1032.41 1032.21 1031.93 1031.69 1031.45 1031.21 1030.93 1030.65 1030.45 1030.21 1030.05 1029.85 1029.65 1029.45 1029.25 1029.09 1028.85 1028.61 1028.37 1028.09 1027.81 1027.61 1027.37 1027.17 1026.89 1026.65 1026.45 1026.21 1025.97 1025.73 1025.45 1025.21 1024.93 1024.65 1024.29 1023.93 1023.53 1023.21 1022.81 1022.45 1022.09 1021.65 1021.21 1020.81 1020.41 1020.01 1019.61 1019.21 1018.93 1018.73 1018.61 1018.49 1018.33 1018.21 1018.09 1017.93 1017.81 1017.65 1017.53 1017.37 1017.17 1017.01
1033.81 1033.61 1033.45 1033.25 1033.09 1032.85 1032.61 1032.37 1032.13 1031.89 1031.65 1031.37 1031.09 1030.85 1030.65 1030.41 1030.21 1029.97 1029.81 1029.61 1029.41 1029.21 1029.01 1028.81 1028.53 1028.29 1028.01 1027.77 1027.53 1027.33 1027.09 1026.85 1026.65 1026.41 1026.17 1025.93 1025.65 1025.37 1025.09 1024.85 1024.53 1024.17 1023.81 1023.41 1023.05 1022.69 1022.25 1021.81 1021.33 1020.85 1020.45 1020.05 1019.69 1019.37 1019.09 1018.81 1018.69 1018.61 1018.49 1018.33 1018.17 1018.05 1017.89 1017.77 1017.61 1017.49 1017.33 1017.13 1016.97
1033.81 1033.65 1033.41 1033.21 1033.01 1032.77 1032.49 1032.25 1032.05 1031.81 1031.53 1031.25 1031.05 1030.81 1030.57 1030.37 1030.17 1029.93 1029.77 1029.57 1029.37 1029.17 1028.93 1028.73 1028.49 1028.21 1027.93 1027.69 1027.45 1027.21 1027.01 1026.81 1026.57 1026.37 1026.09 1025.89 1025.65 1025.37 1025.09 1024.77 1024.45 1024.09 1023.65 1023.29 1022.97 1022.57 1022.09 1021.53 1020.93 1020.41 1019.97 1019.65 1019.37 1019.17 1018.93 1018.77 1018.69 1018.65 1018.49 1018.33 1018.21 1018.05 1017.93 1017.77 1017.61 1017.45 1017.29 1017.09 1016.93
1033.81 1033.61 1033.37 1033.13 1032.93 1032.65 1032.45 1032.21 1031.93 1031.69 1031.41 1031.17 1030.93 1030.69 1030.49 1030.29 1030.09 1029.89 1029.69 1029.49 1029.29 1029.09 1028.89 1028.65 1028.45 1028.17 1027.89 1027.65 1027.37 1027.21 1027.01 1026.81 1026.53 1026.29 1026.05 1025.81 1025.57 1025.29 1025.01 1024.69 1024.37 1023.93 1023.53 1023.21 1022.89 1022.45 1021.93 1021.29 1020.65 1020.05 1019.53 1019.29 1019.13 1018.97 1018.85 1018.77 1018.73 1018.65 1018.49 1018.37 1018.25 1018.13 1017.97 1017.81 1017.65 1017.45 1017.29 1017.09 1016.97
1033.69 1033.49 1033.25 1033.01 1032.77 1032.49 1032.29 1032.09 1031.85 1031.57 1031.33 1031.09 1030.85 1030.65 1030.45 1030.21 1030.05 1029.81 1029.61 1029.41 1029.21 1029.01 1028.81 1028.57 1028.37 1028.09 1027.81 1027.53 1027.33 1027.13 1026.97 1026.81 1026.53 1026.29 1026.01 1025.77 1025.53 1025.21 1024.93 1024.57 1024.21 1023.81 1023.37 1023.05 1022.65 1022.09 1021.49 1020.93 1020.37 1019.69 1019.21 1019.01 1018.93 1018.89 1018.81 1018.73 1018.73 1018.65 1018.57 1018.45 1018.37 1018.21 1018.09 1017.85 1017.65 1017.53 1017.33 1017.17 1017.01
1033.53 1033.33 1033.09 1032.85 1032.65 1032.37 1032.17 1031.97 1031.73 1031.53 1031.25 1031.01 1030.81 1030.57 1030.37 1030.21 1029.97 1029.77 1029.53 1029.33 1029.09 1028.89 1028.69 1028.49 1028.25 1027.97 1027.69 1027.49 1027.29 1027.09 1026.93 1026.73 1026.49 1026.29 1026.01 1025.73 1025.45 1025.13 1024.81 1024.49 1024.09 1023.69 1023.37 1022.93 1022.41 1021.81 1021.17 1020.57 1019.93 1019.33 1018.93 1018.89 1018.85 1018.81 1018.81 1018.77 1018.77 1018.73 1018.65 1018.53 1018.41 1018.33 1018.13 1017.93 1017.69 1017.53 1017.37 1017.21 1017.05
1033.41 1033.21 1032.93 1032.73 1032.49 1032.25 1032.09 1031.85 1031.65 1031.41 1031.17 1030.93 1030.73 1030.53 1030.37 1030.17 1029.93 1029.69 1029.49 1029.29 1029.09 1028.85 1028.61 1028.37 1028.13 1027.89 1027.65 1027.45 1027.25 1027.09 1026.85 1026.65 1026.45 1026.21 1025.97 1025.73 1025.41 1025.09 1024.77 1024.37 1023.97 1023.65 1023.33 1022.85 1022.25 1021.65 1021.01 1020.37 1019.65 1019.09 1018.85 1018.93 1018.89 1018.81 1018.81 1018.81 1018.81 1018.81 1018.73 1018.65 1018.49 1018.37 1018.13 1017.93 1017.77 1017.61 1017.41 1017.25 1017.09
1033.29 1033.09 1032.81 1032.65 1032.37 1032.17 1031.93 1031.77 1031.53 1031.33 1031.09 1030.89 1030.69 1030.49 1030.29 1030.09 1029.89 1029.65 1029.45 1029.21 1029.01 1028.77 1028.49 1028.29 1028.09 1027.85 1027.61 1027.41 1027.21 1027.05 1026.85 1026.65 1026.41 1026.21 1025.93 1025.65 1025.37 1025.05 1024.69 1024.29 1023.89 1023.57 1023.25 1022.81 1022.21 1021.61 1020.97 1020.29 1019.61 1019.13 1018.93 1018.93 1018.93 1018.93 1018.93 1018.93 1018.89 1018.81 1018.81 1018.69 1018.53 1018.37 1018.17 1017.93 1017.77 1017.65 1017.53 1017.37 1017.21
1033.21 1032.97 1032.77 1032.49 1032.33 1032.09 1031.89 1031.65 1031.49 1031.25 1031.05 1030.81 1030.65 1030.45 1030.21 1030.01 1029.81 1029.65 1029.41 1029.17 1028.93 1028.69 1028.45 1028.21 1028.01 1027.81 1027.57 1027.37 1027.17 1027.01 1026.81 1026.57 1026.37 1026.09 1025.85 1025.57 1025.29 1024.93 1024.53 1024.17 1023.77 1023.45 1023.09 1022.65 1022.13 1021.65 1021.05 1020.21 1019.65 1019.29 1019.09 1018.97 1019.09 1019.09 1019.05 1018.97 1018.93 1018.93 1018.85 1018.73 1018.57 1018.41 1018.21 1017.93 1017.81 1017.69 1017.61 1017.45 1017.29
1033.21 1032.93 1032.73 1032.49 1032.29 1032.09 1031.85 1031.65 1031.45 1031.25 1031.05 1030.81 1030.65 1030.41 1030.21 1030.05 1029.85 1029.65 1029.37 1029.13 1028.93 1028.65 1028.41 1028.21 1028.01 1027.81 1027.57 1027.37 1027.17 1026.93 1026.73 1026.53 1026.33 1026.09 1025.81 1025.53 1025.21 1024.85 1024.45 1024.05 1023.69 1023.37 1022.97 1022.49 1022.01 1021.61 1021.01 1020.21 1019.77 1019.41 1019.21 1019.09 1019.17 1019.17 1019.13 1019.13 1019.09 1019.01 1018.93 1018.81 1018.65 1018.49 1018.25 1018.05 1017.81 1017.81 1017.73 1017.57 1017.41
1033.21 1032.97 1032.73 1032.49 1032.25 1032.05 1031.89 1031.65 1031.49 1031.21 1031.01 1030.81 1030.65 1030.41 1030.25 1030.05 1029.85 1029.65 1029.41 1029.21 1028.93 1028.65 1028.41 1028.21 1028.05 1027.81 1027.57 1027.33 1027.13 1026.93 1026.69 1026.49 1026.25 1026.01 1025.77 1025.49 1025.13 1024.81 1024.37 1023.97 1023.61 1023.25 1022.85 1022.37 1021.93 1021.49 1020.97 1020.33 1019.81 1019.45 1019.21 1019.21 1019.29 1019.33 1019.29 1019.25 1019.21 1019.09 1019.01 1018.93 1018.77 1018.61 1018.37 1018.17 1017.97 1017.93 1017.85 1017.69 1017.53
1033.25 1033.01 1032.77 1032.49 1032.25 1032.05 1031.85 1031.65 1031.45 1031.21 1031.01 1030.81 1030.65 1030.45 1030.25 1030.05 1029.85 1029.65 1029.41 1029.17 1028.89 1028.65 1028.41 1028.17 1027.97 1027.77 1027.53 1027.25 1027.09 1026.89 1026.65 1026.45 1026.21 1025.93 1025.65 1025.37 1025.13 1024.81 1024.37 1023.93 1023.61 1023.25 1022.81 1022.29 1021.89 1021.53 1021.05 1020.45 1019.89 1019.53 1019.41 1019.41 1019.49 1019.53 1019.45 1019.37 1019.29 1019.21 1019.13 1019.05 1018.93 1018.77 1018.57 1018.37 1018.21 1018.09 1018.01 1017.89 1017.73
1033.25 1033.05 1032.77 1032.49 1032.29 1032.05 1031.81 1031.61 1031.41 1031.21 1031.01 1030.81 1030.65 1030.45 1030.25 1030.05 1029.81 1029.61 1029.37 1029.09 1028.81 1028.61 1028.37 1028.13 1027.93 1027.69 1027.45 1027.21 1026.97 1026.81 1026.61 1026.37 1026.21 1025.93 1025.61 1025.37 1025.09 1024.81 1024.37 1023.97 1023.61 1023.25 1022.81 1022.29 1021.89 1021.57 1021.13 1020.53 1020.01 1019.73 1019.65 1019.65 1019.65 1019.65 1019.61 1019.53 1019.45 1019.37 1019.25 1019.17 1019.09 1018.93 1018.81 1018.61 1018.41 1018.29 1018.17 1018.05 1017.89
1033.25 1033.01 1032.77 1032.53 1032.29 1032.05 1031.81 1031.61 1031.45 1031.21 1031.01 1030.81 1030.61 1030.41 1030.21 1030.01 1029.77 1029.53 1029.25 1029.01 1028.77 1028.53 1028.37 1028.13 1027.93 1027.65 1027.45 1027.21 1026.97 1026.77 1026.53 1026.33 1026.09 1025.85 1025.61 1025.33 1025.09 1024.77 1024.41 1024.05 1023.69 1023.25 1022.81 1022.33 1021.93 1021.65 1021.21 1020.57 1020.13 1019.89 1019.81 1019.85 1019.89 1019.85 1019.81 1019.69 1019.61 1019.53 1019.49 1019.37 1019.33 1019.21 1019.05 1018.85 1018.65 1018.49 1018.37 1018.21 1018.05
1033.21 1032.97 1032.73 1032.49 1032.29 1032.05 1031.81 1031.61 1031.41 1031.21 1031.01 1030.81 1030.61 1030.41 1030.21 1029.97 1029.77 1029.53 1029.21 1028.93 1028.65 1028.49 1028.29 1028.09 1027.81 1027.57 1027.37 1027.13 1026.93 1026.69 1026.49 1026.29 1026.09 1025.81 1025.53 1025.29 1025.05 1024.77 1024.41 1024.09 1023.69 1023.29 1022.81 1022.29 1021.97 1021.65 1021.21 1020.65 1020.25 1020.05 1019.97 1020.05 1020.09 1020.05 1019.97 1019.89 1019.81 1019.77 1019.65 1019.57 1019.53 1019.41 1019.29 1019.09 1018.93 1018.77 1018.61 1018.41 1018.21
1033.21 1033.01 1032.77 1032.49 1032.25 1032.05 1031.81 1031.65 1031.41 1031.21 1030.97 1030.81 1030.61 1030.37 1030.17 1029.93 1029.69 1029.45 1029.17 1028.85 1028.65 1028.41 1028.17 1027.93 1027.69 1027.49 1027.25 1027.09 1026.85 1026.65 1026.45 1026.25 1026.01 1025.77 1025.53 1025.25 1025.05 1024.77 1024.45 1024.09 1023.69 1023.29 1022.81 1022.33 1021.93 1021.61 1021.21 1020.77 1020.37 1020.17 1020.13 1020.25 1020.29 1020.25 1020.21 1020.13 1020.05 1019.97 1019.89 1019.81 1019.73 1019.65 1019.53 1019.37 1019.17 1019.05 1018.85 1018.61 1018.33
1033.21 1033.01 1032.77 1032.49 1032.25 1032.05 1031.81 1031.61 1031.41 1031.17 1030.93 1030.77 1030.57 1030.37 1030.09 1029.85 1029.61 1029.37 1029.09 1028.81 1028.57 1028.37 1028.09 1027.85 1027.61 1027.37 1027.21 1027.01 1026.81 1026.65 1026.41 1026.21 1025.97 1025.73 1025.49 1025.21 1025.01 1024.77 1024.45 1024.09 1023.77 1023.37 1022.93 1022.41 1021.93 1021.57 1021.25 1020.89 1020.49 1020.29 1020.33 1020.45 1020.45 1020.45 1020.45 1020.37 1020.33 1020.21 1020.09 1019.97 1019.97 1019.93 1019.85 1019.65 1019.49 1019.29 1019.09 1018.81 1018.49
1033.21 1032.97 1032.77 1032.49 1032.21 1032.01 1031.81 1031.57 1031.37 1031.13 1030.93 1030.69 1030.49 1030.29 1030.05 1029.81 1029.53 1029.29 1029.01 1028.77 1028.53 1028.29 1028.05 1027.81 1027.53 1027.37 1027.17 1027.01 1026.81 1026.61 1026.41 1026.21 1026.01 1025.73 1025.49 1025.21 1025.01 1024.77 1024.49 1024.17 1023.85 1023.53 1023.13 1022.57 1022.05 1021.65 1021.33 1021.01 1020.65 1020.53 1020.61 1020.69 1020.73 1020.73 1020.69 1020.65 1020.61 1020.49 1020.33 1020.21 1020.17 1020.13 1020.09 1019.97 1019.85 1019.65 1019.45 1019.21 1018.81
1033.17 1032.93 1032.69 1032.45 1032.21 1031.93 1031.73 1031.53 1031.29 1031.09 1030.85 1030.65 1030.37 1030.17 1029.97 1029.73 1029.49 1029.21 1028.97 1028.73 1028.49 1028.29 1028.01 1027.73 1027.49 1027.29 1027.13 1026.93 1026.81 1026.61 1026.41 1026.21 1025.97 1025.77 1025.53 1025.29 1025.05 1024.77 1024.49 1024.25 1023.97 1023.65 1023.25 1022.77 1022.25 1021.81 1021.45 1021.17 1020.93 1020.85 1020.93 1020.97 1021.01 1021.01 1020.97 1020.93 1020.89 1020.77 1020.65 1020.49 1020.37 1020.33 1020.25 1020.21 1020.09 1019.97 1019.81 1019.61 1019.21
1033.09 1032.85 1032.61 1032.37 1032.17 1031.93 1031.65 1031.41 1031.21 1031.01 1030.81 1030.57 1030.29 1030.09 1029.85 1029.65 1029.41 1029.17 1028.93 1028.69 1028.45 1028.21 1027.93 1027.65 1027.41 1027.21 1027.05 1026.85 1026.73 1026.61 1026.41 1026.21 1025.97 1025.81 1025.53 1025.29 1025.05 1024.77 1024.49 1024.37 1024.09 1023.81 1023.41 1022.97 1022.49 1022.09 1021.69 1021.41 1021.21 1021.13 1021.21 1021.25 1021.33 1021.33 1021.25 1021.21 1021.13 1021.05 1020.89 1020.73 1020.61 1020.49 1020.45 1020.37 1020.33 1020.21 1020.09 1019.93 1019.65
1033.05 1032.81 1032.57 1032.33 1032.09 1031.81 1031.57 1031.33 1031.09 1030.89 1030.65 1030.45 1030.25 1030.05 1029.81 1029.57 1029.37 1029.13 1028.93 1028.65 1028.37 1028.09 1027.85 1027.57 1027.29 1027.09 1026.93 1026.81 1026.69 1026.57 1026.37 1026.17 1025.93 1025.77 1025.57 1025.33 1025.09 1024.89 1024.65 1024.49 1024.21 1023.93 1023.57 1023.21 1022.77 1022.37 1021.97 1021.69 1021.41 1021.37 1021.37 1021.49 1021.53 1021.53 1021.53 1021.45 1021.37 1021.29 1021.21 1021.09 1020.93 1020.81 1020.69 1020.61 1020.53 1020.45 1020.37 1020.21 1020.01
Wind_Speed
7 7 7 8 8 7 7 7 7 8 7 7 8 8 8 8 8 8 8 8 8 8 9 9 9 10 12 14 16 16 16 16 17 17 18 17 17 17 17 16 16 16 17 17 17 15 13 12 12 10 10 10 10 11 11 11 11 10 10 9 9 9 10 11 11 12 12 12 9
8 8 8 9 9 8 7 7 7 7 8 7 8 8 8 8 8 8 8 8 8 9 9 9 10 12 13 15 15 15 15 16 17 17 17 16 16 17 17 16 15 16 16 17 16 14 12 12 12 10 9 9 10 10 11 11 10 10 10 11 10 9 10 10 11 12 12 11 9
8 8 8 8 8 7 7 7 7 8 8 8 8 8 8 8 8 8 8 9 10 10 10 9 11 12 14 14 14 14 14 15 17 17 16 15 16 16 16 15 15 16 16 16 15 13 13 13 11 10 9 9 10 10 10 10 10 10 10 11 10 9 9 9 10 10 9 8 9
8 8 8 8 8 8 8 7 8 9 9 8 9 9 9 8 8 8 9 10 11 10 10 10 11 12 12 13 14 15 15 16 17 17 16 15 15 16 16 16 15 15 15 14 15 15 14 14 11 9 9 10 11 10 9 8 10 10 10 10 10 9 9 9 10 9 8 7 8
8 8 8 8 9 8 8 7 9 9 10 9 9 9 9 8 8 9 9 10 10 10 11 13 12 12 12 14 15 16 16 17 17 16 15 15 16 16 16 16 15 15 14 14 14 15 15 15 11 9 9 9 9 9 9 10 11 11 10 9 9 9 9 10 9 8 7 7 7
9 8 8 8 8 8 8 8 9 10 10 9 10 10 10 9 9 10 10 11 11 12 13 14 13 13 14 15 15 16 15 15 15 15 15 16 16 16 16 16 16 15 14 14 15 15 15 14 10 9 9 8 9 9 11 12 12 11 11 10 10 9 9 10 9 8 8 8 9
9 9 9 9 9 8 8 9 9 10 10 10 11 12 11 11 11 12 12 12 11 12 12 13 13 14 14 15 15 15 15 15 15 15 16 16 16 16 17 16 16 15 15 15 15 15 14 13 10 9 9 9 8 10 12 12 12 12 12 12 10 10 10 11 10 9 9 10 12
9 9 9 9 9 9 9 10 10 11 10 10 11 12 12 12 12 13 12 12 11 11 11 11 13 14 15 15 15 15 15 15 15 15 16 16 17 17 17 16 15 16 16 16 15 16 15 12 10 9 9 9 8 10 12 14 14 14 14 13 11 10 10 11 10 10 10 11 12
8 9 9 9 8 9 9 10 11 11 11 11 12 12 13 13 13 13 12 11 11 11 12 11 13 15 16 16 15 15 14 14 15 15 16 16 17 17 16 15 15 16 16 16 16 17 16 12 10 9 9 9 10 11 12 15 15 15 15 13 12 12 12 12 12 11 11 11 12
9 9 9 9 9 9 10 11 11 12 12 12 12 12 13 14 13 12 11 10 11 12 12 12 14 15 15 15 14 14 14 14 14 15 16 16 17 17 16 15 16 16 17 16 16 16 15 12 11 11 12 11 12 13 14 15 16 16 15 12 13 14 15 15 14 12 11 10 11
10 9 9 9 9 10 10 11 11 11 11 11 12 12 12 12 12 12 11 11 12 13 13 14 15 15 15 14 14 14 14 14 14 14 15 16 16 16 16 16 17 17 17 17 16 15 13 12 13 15 15 15 14 14 14 15 16 17 16 14 15 16 17 16 12 10 9 10 11
10 9 9 9 9 10 10 11 10 10 11 11 11 11 11 10 11 12 13 13 13 13 13 14 14 14 14 13 13 14 14 14 15 15 15 16 16 16 15 16 16 17 18 18 16 14 13 13 15 16 17 18 14 13 13 16 17 18 18 18 17 16 15 13 10 9 8 10 11
10 9 9 9 10 10 11 11 10 10 10 11 11 11 10 10 12 12 13 12 12 12 12 13 14 14 13 13 13 13 14 14 15 15 15 16 15 15 14 14 15 16 17 17 16 15 15 15 16 17 18 18 16 15 15 17 17 18 18 19 17 15 13 10 9 9 10 10 11
10 10 9 10 11 11 10 11 10 9 10 11 11 11 11 11 12 12 12 11 12 12 12 12 13 13 13 14 14 14 14 14 15 15 16 16 15 15 14 14 15 15 15 15 16 17 17 17 17 17 17 18 18 18 18 17 18 18 18 18 16 13 10 8 9 10 10 11 12
10 10 10 10 11 11 11 11 10 9 10 11 11 11 11 11 11 12 12 12 12 11 11 12 12 13 14 15 15 15 15 15 15 15 16 16 15 15 15 15 15 15 15 15 16 17 17 18 18 17 17 17 18 19 19 18 18 18 18 17 13 10 8 7 9 9 10 11 12
10 10 10 10 11 12 12 11 10 10 10 11 11 11 11 11 11 11 12 12 11 11 11 13 13 13 13 14 15 15 15 14 14 15 15 15 15 15 16 16 16 16 16 17 17 17 17 17 16 17 17 17 18 18 19 19 19 19 18 15 10 7 6 7 8 9 10 11 12
10 10 10 11 12 13 13 12 11 11 11 12 13 12 12 11 11 11 12 13 12 11 12 14 13 13 13 13 13 13 13 13 14 14 14 15 15 15 15 15 16 16 17 17 18 18 18 18 17 17 17 18 18 18 19 19 18 18 16 12 8 6 6 7 8 9 10 11 12
11 11 11 12 13 13 14 14 13 13 13 14 14 13 12 12 12 12 12 13 13 13 14 14 13 13 13 13 12 12 12 12 13 13 14 14 14 14 15 15 16 16 16 17 18 18 19 19 18 18 18 18 18 18 19 18 17 15 12 9 7 6 6 7 8 8 9 10 11
13 13 13 13 14 14 15 15 15 15 14 14 14 14 13 13 13 12 12 12 13 14 14 14 14 13 13 13 13 12 12 12 13 13 13 14 14 14 15 15 16 16 17 17 18 18 18 18 19 19 19 19 19 19 19 18 14 11 9 6 6 6 6 7 7 8 9 10 10
14 14 14 14 14 15 15 15 15 15 15 14 14 14 15 14 13 13 12 12 14 14 14 14 14 14 14 14 14 13 12 11 12 12 13 13 13 14 15 15 16 17 17 17 17 18 18 18 19 19 19 20 20 20 19 15 11 7 5 5 5 6 6 7 8 8 9 9 10
14 14 15 15 15 15 15 15 15 15 15 15 15 15 15 14 13 13 12 13 14 14 14 14 14 15 14 14 14 13 12 11 11 11 12 12 13 14 14 15 16 16 17 17 17 17 18 18 19 19 19 19 20 18 15 10 6 5 5 5 6 6 7 7 8 8 9 9 9
14 14 14 15 14 15 15 15 15 15 15 15 15 15 14 14 13 13 13 13 13 14 14 14 15 15 15 14 14 13 12 11 10 11 11 12 12 13 14 14 15 16 17 17 16 17 18 18 19 19 19 19 17 14 10 6 4 5 5 6 7 7 7 8 8 9 9 8 8
14 14 14 13 14 14 15 15 15 15 15 15 14 14 14 13 13 13 13 13 13 13 13 13 13 14 14 14 13 12 12 11 11 11 11 12 12 13 13 13 14 15 16 15 15 16 17 18 19 19 19 17 13 10 6 4 5 5 6 7 7 8 8 8 9 9 8 8 7
13 13 13 12 13 13 14 14 14 14 14 14 14 13 13 13 13 13 13 13 13 13 13 12 12 13 13 13 12 11 11 11 12 12 12 12 12 12 13 13 13 14 14 13 15 18 19 18 18 18 16 12 8 5 3 4 4 5 6 7 7 8 8 9 9 9 8 8 7
13 13 13 13 13 13 13 13 13 14 14 14 13 13 13 13 13 13 13 13 13 13 13 13 12 12 12 11 11 10 11 11 12 12 12 12 12 12 12 12 12 13 13 14 21 26 28 27 24 19 12 6 4 2 3 3 4 5 6 7 7 8 9 9 9 9 8 8 8
14 14 14 13 13 13 13 13 13 14 14 14 14 14 13 13 13 13 13 13 13 13 12 12 12 12 12 11 11 11 11 11 11 12 12 12 12 13 13 12 12 12 13 17 25 30 33 34 32 21 9 1 1 2 3 4 5 5 6 7 7 8 9 9 9 8 8 8 8
14 14 14 14 14 14 14 14 13 14 14 14 14 14 14 13 13 13 13 13 13 12 12 11 11 11 12 11 11 11 11 11 11 11 12 12 12 13 13 13 12 11 14 21 28 32 34 36 31 18 8 4 3 4 4 4 5 5 6 7 7 8 9 9 8 7 7 7 7
14 14 14 14 15 15 14 14 14 14 14 15 15 15 14 14 14 14 14 13 13 12 11 10 10 9 9 9 10 11 12 12 12 11 11 12 13 13 13 13 12 13 18 26 29 32 33 35 26 16 10 8 5 4 5 5 5 5 5 6 7 8 9 9 6 6 6 7 7
14 15 15 15 15 15 15 14 14 15 15 15 15 15 15 14 14 14 14 14 14 13 11 10 9 9 9 10 11 11 12 12 11 11 11 12 13 14 14 14 14 16 21 28 29 31 32 32 22 16 13 11 7 5 5 5 6 6 6 6 8 9 9 9 6 6 6 6 7
14 15 15 15 15 15 15 15 15 15 15 14 14 15 15 14 14 15 15 15 14 13 12 11 10 10 11 12 11 11 11 11 11 11 12 13 14 15 15 16 15 17 21 27 29 31 31 28 21 18 17 15 10 6 5 6 6 6 7 7 9 10 11 11 8 7 7 7 7
15 15 15 15 15 15 15 14 14 14 14 14 14 14 14 14 14 15 14 14 14 14 13 13 12 12 13 12 12 11 11 11 11 12 12 13 14 15 16 16 16 17 21 27 29 30 30 25 21 20 20 19 13 8 5 6 7 7 7 8 10 11 11 11 9 8 8 7 7
15 16 15 15 15 15 15 14 14 14 14 14 14 14 14 14 14 14 14 14 14 13 13 13 13 13 13 13 12 12 12 12 12 12 13 14 14 15 16 16 16 17 21 27 29 30 28 24 21 22 22 21 14 10 7 7 7 8 8 9 11 12 13 12 10 9 8 7 8
15 15 15 16 16 15 15 14 14 14 14 14 14 14 14 14 14 13 13 13 13 13 13 13 13 14 14 13 13 12 12 12 12 13 14 14 14 15 15 15 14 16 22 27 28 29 27 24 21 22 22 21 14 10 9 9 8 8 9 10 11 13 14 14 12 9 8 8 8
15 15 16 16 16 15 15 15 14 14 14 14 14 14 14 14 14 14 13 13 13 12 12 12 13 13 13 13 12 12 12 12 12 12 13 13 14 15 15 14 12 16 22 27 28 28 27 24 21 21 21 19 13 10 9 10 10 10 10 11 12 13 15 15 13 10 9 9 9
15 15 15 15 15 15 15 15 14 14 14 14 14 15 15 14 14 14 13 14 13 12 12 12 12 12 12 12 12 12 12 12 12 12 12 13 13 14 15 14 13 17 23 27 28 28 28 26 22 21 20 16 11 9 10 11 11 11 12 11 13 14 16 15 13 12 10 10 11
15 15 15 15 15 15 14 14 14 14 14 14 14 14 14 14 14 13 13 14 13 13 12 12 12 12 12 12 11 11 12 12 12 12 12 13 13 14 14 14 14 18 23 27 27 27 28 27 23 21 18 13 9 9 9 10 10 11 12 11 13 14 15 14 14 13 13 12 12
14 15 15 15 14 14 14 14 14 14 15 15 14 14 14 14 14 13 13 13 13 13 13 12 13 13 12 12 12 11 11 11 12 12 12 13 13 13 13 13 13 16 21 26 27 27 27 28 25 21 16 11 9 9 9 9 10 10 11 11 11 12 13 12 13 14 14 15 16
14 14 14 14 14 14 14 14 14 15 15 15 14 14 14 14 13 13 13 13 13 13 13 12 12 12 12 12 12 12 11 11 12 12 12 12 12 13 13 13 13 15 19 25 27 27 27 28 26 22 17 10 9 8 9 9 9 10 10 10 10 10 11 10 10 11 14 17 21
14 14 14 14 14 14 14 14 14 14 14 14 14 14 14 13 12 12 13 13 13 12 12 12 12 12 12 13 12 11 11 11 12 12 12 12 13 14 14 13 12 14 17 23 26 27 27 28 27 24 18 11 9 8 8 8 9 9 9 9 9 9 9 9 9 10 11 15 22
14 14 14 14 14 14 14 14 13 13 13 13 14 13 13 13 13 13 13 12 12 12 12 12 12 12 12 13 12 11 11 11 11 11 12 12 13 15 15 13 12 13 16 21 24 26 26 27 27 24 19 11 9 8 7 7 8 9 9 9 8 8 8 8 9 9 10 12 16
14 14 14 14 14 14 14 14 13 13 12 12 13 13 13 13 13 12 12 12 13 12 12 11 12 12 12 12 11 10 10 10 10 10 11 12 12 13 13 12 11 12 14 17 22 24 25 26 26 24 20 13 9 7 7 7 8 9 9 9 9 8 8 8 8 9 10 11 11
Wind_Direction
340 341 340 338 338 338 337 335 335 335 335 331 326 322 320 318 317 317 318 320 321 321 320 319 319 319 320 322 324 325 327 329 330 329 329 328 327 325 323 321 320 319 318 317 315 314 314 319 324 324 321 316 313 310 308 305 304 304 305 308 306 305 305 304 299 295 293 292 292
339 340 339 338 339 338 336 334 335 335 333 327 322 319 318 317 317 317 318 320 320 318 317 316 317 318 319 321 324 327 329 330 330 329 328 327 325 323 321 319 318 317 316 315 314 314 316 321 323 321 316 312 310 308 306 305 307 310 314 317 315 312 308 304 298 293 291 290 292
338 339 339 339 340 339 337 335 335 333 329 323 320 319 317 317 316 317 318 318 317 316 315 316 317 318 320 322 327 330 331 330 329 327 326 324 323 321 319 317 316 314 313 312 313 314 317 321 319 317 313 310 308 305 304 305 310 315 318 318 315 312 308 302 297 293 290 290 295
337 337 337 337 339 339 338 336 334 331 327 323 320 318 317 317 317 318 317 316 315 315 316 317 317 319 322 326 329 330 330 328 327 326 324 322 320 318 317 315 314 312 311 310 312 315 317 320 317 314 310 307 304 303 304 308 315 317 316 314 311 308 305 300 296 292 290 292 296
335 336 337 337 338 339 338 337 333 330 326 322 320 319 319 319 319 319 318 317 317 317 318 319 320 323 326 329 329 329 328 327 326 325 322 321 318 316 315 314 312 311 310 311 315 317 319 320 316 311 308 305 304 305 308 312 315 314 311 308 307 305 303 299 295 291 290 294 298
333 334 335 337 338 338 337 336 332 328 325 322 320 319 319 320 320 320 320 319 318 318 319 322 324 326 328 329 328 327 326 325 325 323 321 319 317 315 314 313 313 313 314 316 319 320 320 320 315 311 308 306 305 307 310 314 313 311 308 305 304 303 300 298 294 291 291 296 300
332 334 336 337 338 338 337 335 331 327 324 320 319 318 318 318 319 319 320 319 320 321 324 326 328 328 327 327 326 325 325 325 323 322 321 319 316 315 315 315 316 317 319 322 323 323 322 319 315 311 310 310 309 310 312 312 311 308 305 303 302 301 300 298 295 292 294 299 302
331 333 335 336 337 337 336 334 330 327 323 321 319 318 317 317 318 320 321 321 322 324 326 327 327 326 325 325 324 324 324 324 323 323 321 319 317 316 317 318 320 322 325 326 326 325 322 319 316 313 311 311 310 310 310 310 308 305 303 302 301 301 300 298 295 294 296 301 303
332 334 335 335 336 336 335 332 329 326 322 319 318 317 318 319 321 322 322 321 322 324 325 324 324 324 324 324 324 323 324 324 323 322 321 319 318 319 321 323 326 327 328 328 326 324 322 318 316 314 313 312 311 309 308 308 307 305 304 302 301 301 300 297 294 293 296 302 303
332 333 334 335 335 335 333 331 327 324 321 317 317 317 319 321 322 321 320 319 321 322 323 323 324 324 324 324 323 323 323 323 322 321 320 319 319 321 324 327 329 329 328 327 325 323 320 317 315 314 313 311 309 308 307 307 306 306 305 303 302 300 298 295 291 293 298 304 304
331 333 334 334 334 333 332 329 326 323 320 317 317 318 319 321 319 318 317 318 319 321 322 323 324 324 324 323 323 323 324 323 322 321 319 318 319 322 325 327 328 327 325 324 323 321 318 316 314 313 313 311 310 308 307 308 307 307 306 303 300 298 295 291 292 297 304 307 306
330 332 333 333 332 331 330 328 325 321 319 316 317 317 318 318 315 315 315 317 318 319 321 324 325 324 323 323 323 323 323 323 322 320 319 318 319 321 323 325 325 323 322 321 321 319 316 314 312 312 311 311 310 309 308 308 308 307 306 303 299 296 292 291 297 305 310 310 309
329 331 332 332 331 330 328 327 323 320 317 315 316 317 317 315 314 314 314 315 317 319 322 324 324 323 323 322 322 322 322 322 321 319 318 317 318 320 321 321 321 320 320 319 319 317 315 312 310 310 310 311 310 309 308 308 307 307 305 302 298 294 291 295 307 313 314 313 313
328 330 331 331 330 328 327 325 322 318 315 314 314 315 315 313 313 314 315 315 318 320 322 323 322 322 321 321 321 322 322 321 319 318 316 316 317 318 318 318 318 318 318 318 317 315 313 310 309 309 309 310 309 308 307 307 306 305 303 299 294 291 293 304 314 317 318 317 316
327 329 330 329 328 327 325 324 320 316 314 313 313 313 312 311 312 314 315 317 319 321 321 321 320 319 319 320 321 321 321 320 318 316 315 315 315 316 317 317 317 317 317 317 315 313 310 309 308 308 308 308 307 306 305 304 303 302 299 295 290 289 297 313 319 320 320 318 316
326 328 328 328 326 325 324 322 319 316 314 313 313 312 311 311 312 314 317 319 320 321 320 319 318 317 317 318 320 321 321 319 317 316 314 314 313 314 315 316 316 317 317 316 314 311 309 308 307 307 306 305 304 302 301 300 300 299 296 291 287 291 305 318 321 321 319 317 316
325 326 326 325 324 323 323 321 318 316 315 314 313 312 311 311 312 315 318 321 322 321 319 318 316 316 316 317 319 320 319 319 317 315 313 312 312 312 314 315 316 317 317 315 312 311 309 308 307 306 305 303 301 299 298 298 297 295 292 287 288 298 313 321 322 320 318 316 315
325 325 325 324 323 323 322 321 319 317 316 315 314 313 312 311 312 315 318 321 321 320 319 317 315 314 314 314 316 317 318 317 316 314 312 311 310 311 313 315 317 317 316 314 311 310 309 308 308 307 305 303 301 299 298 297 294 290 286 282 293 306 317 322 322 319 316 315 314
325 325 324 324 324 323 322 321 319 318 316 315 314 313 311 310 312 314 317 319 321 321 319 317 315 314 313 313 313 314 315 315 314 313 312 311 311 312 314 316 318 317 315 312 310 309 308 308 307 306 304 302 302 301 300 299 293 286 280 284 301 313 320 322 321 318 315 313 313
325 324 324 324 323 322 321 319 318 317 316 315 313 312 310 310 312 314 316 318 321 321 319 316 315 313 313 312 312 313 314 314 314 314 314 314 314 315 316 318 319 317 314 312 310 309 308 307 305 303 302 301 302 302 302 300 293 287 286 303 314 320 323 323 321 318 315 313 312
324 324 323 323 322 320 319 317 317 316 315 314 312 311 310 311 312 314 316 318 320 319 318 316 314 313 313 312 312 312 312 313 316 316 316 316 317 318 319 320 319 317 314 312 310 309 307 304 302 300 299 300 301 302 302 301 300 307 318 326 327 326 326 325 322 319 316 314 314
323 322 322 321 319 317 316 316 316 315 314 313 313 312 312 313 314 316 317 318 319 318 316 315 314 313 312 312 312 311 312 313 316 317 317 317 318 319 320 320 318 315 313 311 310 308 306 303 300 299 299 299 301 301 301 309 328 337 337 334 332 331 329 327 324 321 318 317 318
321 320 319 318 316 315 315 315 315 315 314 313 313 314 315 316 317 318 318 318 317 316 315 314 313 312 312 311 311 311 312 314 316 317 317 318 319 320 321 320 317 314 312 311 310 308 305 303 301 301 300 300 299 298 303 333 347 348 343 337 336 334 332 329 325 323 323 325 325
319 318 317 315 314 314 314 315 315 314 314 314 315 316 318 319 319 319 318 317 316 316 315 314 313 311 311 310 311 313 315 317 318 318 318 320 321 321 320 319 315 312 311 311 311 310 309 307 305 302 301 299 295 297 317 348 355 354 348 342 339 336 332 328 326 327 330 334 334
317 316 315 314 314 314 315 316 315 315 315 316 318 319 320 320 320 319 318 317 317 316 315 313 312 311 311 312 314 317 319 319 319 319 319 321 321 321 320 317 314 313 313 312 313 313 312 312 311 309 306 300 293 309 339 359 6 2 354 346 342 336 331 326 327 330 334 339 339
316 315 315 315 316 317 318 318 317 317 318 319 321 322 322 321 320 319 318 318 318 317 316 314 313 314 316 318 320 321 322 321 320 319 320 321 321 320 319 316 314 314 314 314 315 315 316 316 318 322 328 349 349 357 4 12 13 6 357 348 342 335 329 325 327 331 336 341 342
316 316 317 318 320 321 321 321 320 321 322 324 324 324 323 322 321 321 321 321 320 319 317 316 315 317 320 321 323 323 323 322 321 320 320 320 320 319 317 315 314 314 315 316 317 317 318 320 330 342 15 64 30 16 16 19 15 7 357 348 341 335 329 324 326 331 337 342 345
318 319 321 323 324 324 325 325 325 326 327 327 326 326 325 324 324 324 325 325 323 322 320 319 320 321 323 323 324 324 323 322 322 321 320 320 319 317 316 314 314 315 316 317 318 319 322 326 342 8 49 59 39 22 18 18 13 6 358 349 343 338 333 328 331 337 343 346 349
321 323 325 327 327 328 329 330 330 330 329 328 327 327 327 327 328 328 329 328 327 325 325 324 324 324 324 324 324 324 323 322 322 321 321 320 318 317 316 314 314 315 317 318 320 322 327 334 354 20 44 49 42 29 18 15 10 4 358 352 347 343 340 337 341 349 354 352 356
328 330 330 330 330 331 332 333 331 330 329 328 329 329 330 330 331 332 331 330 328 327 327 327 326 325 324 324 324 324 324 323 322 321 320 319 319 318 317 315 315 316 317 319 321 327 334 345 4 23 35 40 39 34 22 15 9 4 359 354 350 347 345 343 349 357 2 0 3
334 333 332 332 333 333 333 333 331 330 330 330 330 331 332 333 333 333 331 330 328 327 327 327 326 325 324 324 324 324 324 323 322 321 321 320 320 319 317 315 316 317 318 321 324 332 341 354 11 24 30 32 30 27 20 15 9 5 360 356 354 352 351 348 354 1 6 5 9
336 335 334 334 334 334 334 333 332 331 331 331 332 332 333 333 332 331 329 327 327 327 327 327 326 326 325 325 325 325 325 325 323 322 322 321 320 319 318 317 318 319 320 323 327 335 346 2 18 26 28 27 24 21 16 16 11 6 2 360 359 359 357 354 357 4 9 11 15
337 336 335 335 335 334 334 333 333 333 332 333 333 333 333 332 330 328 327 326 326 327 327 327 327 326 326 326 326 326 326 326 324 322 321 321 320 320 320 319 318 320 322 325 329 337 349 9 23 29 28 25 22 17 13 16 13 9 6 5 6 6 3 357 358 4 15 22 23
337 336 336 336 335 334 334 334 333 333 333 333 333 333 332 331 329 327 326 325 326 327 326 326 326 326 326 326 326 326 326 327 324 322 321 321 322 322 322 321 318 321 325 328 331 341 354 13 26 31 29 25 21 17 14 15 14 11 10 11 14 13 8 2 360 4 16 29 32
337 336 336 335 334 334 333 333 333 333 333 333 333 332 331 329 327 326 325 325 326 326 326 325 325 326 326 326 326 326 327 327 324 322 321 323 325 325 324 321 318 323 327 329 334 344 358 15 28 33 31 26 22 18 17 16 14 13 13 17 20 18 13 6 4 6 14 27 35
336 335 335 334 333 333 332 332 332 332 332 333 332 331 329 327 326 325 324 325 325 326 326 326 326 327 328 328 328 329 329 328 325 323 324 326 328 327 324 322 321 325 329 331 335 346 360 15 28 35 35 30 24 20 19 18 15 14 16 22 25 21 15 10 9 7 8 14 27
335 334 333 332 331 331 331 331 331 332 332 332 331 329 328 326 326 325 325 327 326 326 326 326 326 328 329 330 330 330 330 329 327 326 327 329 330 328 326 326 325 327 330 332 336 345 358 13 27 36 39 33 26 22 21 19 16 15 17 24 27 23 17 12 11 8 6 5 14
333 332 331 330 330 330 329 329 330 330 330 330 329 327 326 326 326 326 327 328 327 326 325 324 325 327 329 330 331 331 331 329 329 329 330 332 332 332 332 332 330 329 330 333 338 345 356 10 25 35 41 37 29 24 22 19 16 14 16 21 25 23 19 16 13 10 7 5 9
332 331 330 329 329 328 328 328 328 328 327 326 325 325 325 326 327 327 328 328 327 325 324 323 323 324 327 331 331 331 330 329 329 331 333 334 334 336 338 337 332 330 331 335 340 346 356 8 22 33 41 41 33 27 23 20 16 14 14 16 19 20 19 18 15 12 9 6 7
331 330 330 330 328 327 326 326 325 324 323 322 323 324 325 327 327 328 328 327 326 324 323 321 321 322 325 329 330 330 329 327 328 330 333 336 336 338 340 338 332 329 331 336 341 347 355 6 18 29 37 43 35 29 25 21 17 14 12 12 14 15 16 17 16 14 10 7 5
330 330 329 329 328 326 325 323 322 321 320 320 322 323 325 328 327 327 327 326 326 324 322 320 320 321 323 327 328 328 327 325 326 328 331 336 336 337 338 335 331 329 331 336 342 347 354 3 14 23 31 40 36 31 26 25 21 16 12 9 9 10 12 14 15 14 11 7 4